{"data":{"norad_id":50845,"epoch":"2026-05-25T03:36:17.889984Z","epoch_age_seconds":57925,"freshness":"FRESH","line1":"1 50845U 22001AU  26145.15020706 -.00000229  00000+0  36704-5 0  9994","line2":"2 50845  53.2131 195.8749 0000984  77.8457 282.2645 15.08835444241818","mean_motion":15.08835444,"eccentricity":9.84e-5,"inclination_deg":53.2131,"raan_deg":195.8749,"arg_perigee_deg":77.8457,"mean_anomaly_deg":282.2645,"bstar":3.6704e-6,"rev_number":24181,"period_min":95.437842855977,"perigee_km":539.07659406791,"apogee_km":540.43803566907,"semimajor_km":6917.8943148685,"source":"CELESTRAK","updated_at":"2026-05-25T13:38:16.882811Z"}}